Date,TemperatureHighF,TemperatureAvgF,TemperatureLowF,DewpointHighF,DewpointAvgF,DewpointLowF,HumidityHigh,HumidityAvg,HumidityLow,PressureMaxIn,PressureMinIn,WindSpeedMaxMPH,WindSpeedAvgMPH,GustSpeedMaxMPH,PrecipitationSumIn
2013-3-1,47.7,40.6,31.3,43.5,37.6,29.0,100,90,71,30.49,30.44,8,3,17,0.00
2013-3-2,46.6,37.6,27.9,37.8,34.2,26.7,98,88,70,30.46,30.26,7,1,11,0.00
2013-3-3,49.3,39.0,29.3,38.5,34.5,27.5,95,85,63,30.26,30.01,5,1,10,1.25
2013-3-4,42.4,37.0,28.6,37.6,33.8,27.3,96,88,78,30.01,29.69,4,1,13,0.00
2013-3-5,53.4,38.5,25.5,42.2,34.5,24.8,98,87,62,29.69,29.51,8,3,14,0.00
2013-3-6,48.7,45.2,42.1,46.6,43.3,39.7,97,93,88,29.51,29.39,7,3,14,0.37
2013-3-7,49.3,47.1,45.1,46.5,45.0,43.8,96,92,89,29.39,29.22,12,6,26,0.04
2013-3-8,56.3,49.5,46.0,51.2,47.0,43.4,95,91,82,29.43,29.21,7,4,19,0.02
2013-3-9,53.8,45.9,39.9,48.8,43.9,37.8,95,93,81,29.63,29.42,11,7,25,0.00
2013-3-10,39.9,37.5,33.3,38.1,31.3,18.3,93,79,54,29.89,29.63,17,12,35,0.00
2013-3-11,35.4,31.2,28.6,28.2,22.7,18.3,92,71,57,30.05,29.88,17,12,34,0.00
2013-3-12,40.5,33.6,25.5,33.3,26.8,20.4,92,76,62,30.09,29.97,12,6,24,0.00
2013-3-13,46.8,35.8,28.2,37.1,32.7,27.5,98,89,66,30.06,29.95,9,3,18,0.02
2013-3-14,47.3,36.1,24.8,42.5,34.1,24.1,98,93,80,30.07,29.71,5,2,14,0.03
2013-3-15,49.5,41.1,30.2,41.8,37.4,28.5,95,87,67,29.71,29.31,8,3,18,0.01
2013-3-16,47.8,35.0,24.4,38.5,30.8,23.7,99,86,53,29.31,29.24,10,2,15,0.01
2013-3-17,41.4,34.6,28.6,39.5,33.6,27.6,98,96,92,29.28,29.08,8,1,14,0.16
2013-3-18,43.3,36.9,33.6,40.0,35.6,33.1,99,95,82,29.41,29.14,11,4,18,0.13
2013-3-19,38.3,35.0,32.5,36.3,33.7,31.0,98,95,90,29.50,29.41,7,4,14,0.06
2013-3-20,42.6,37.1,32.9,39.5,35.6,32.4,99,94,86,29.84,29.50,3,1,9,0.03
2013-3-21,41.7,39.3,36.9,37.7,36.1,34.4,92,88,83,29.84,29.47,16,9,35,0.01
2013-3-22,43.9,41.6,39.7,41.0,38.8,36.4,92,90,87,29.60,29.40,16,9,35,0.10
2013-3-23,40.5,38.4,36.0,37.3,35.0,32.1,93,87,84,29.87,29.60,11,8,22,0.00
2013-3-24,36.0,34.9,34.2,32.5,30.1,28.5,87,82,78,30.02,29.87,12,8,24,0.00
2013-3-25,39.2,35.4,33.4,29.2,27.1,25.4,80,72,63,30.07,30.02,14,10,27,0.00
2013-3-26,38.5,33.7,31.1,32.8,28.9,25.6,94,83,67,30.07,29.99,13,7,26,0.00
2013-3-27,37.6,32.8,28.0,33.9,29.9,24.2,97,89,76,29.99,29.96,11,4,22,0.03
2013-3-28,40.8,34.0,26.2,32.6,28.4,24.2,96,81,60,29.98,29.88,12,4,21,0.01
2013-3-29,41.0,35.7,33.3,29.1,26.3,24.7,73,68,60,29.88,29.80,11,6,23,0.00
2013-3-30,43.9,35.8,27.0,29.0,25.8,23.1,88,67,51,29.93,29.83,8,3,16,0.00
2013-3-31,43.0,37.4,27.1,32.0,29.3,23.9,88,73,63,29.90,29.78,10,4,21,0.00